Brainerd, MN

2:37 PM CDT on March 29, 2017 (GMT -0500)
Brainerd-Crow Wing County Regional

Weather History for KBRD - December, 2013

Change the Weather History Date:

Monday, December 16, 2013

  Actual Average Record
Temperature  
Mean Temperature 12 °F -  
Max Temperature 28 °F 25 °F 46 °F (1959)
Min Temperature 0 °F 5 °F -25 °F (1963)
Degree Days  
Heating Degree Days 52    
Moisture  
Dew Point 2 °F    
Average Humidity 78    
Maximum Humidity 88    
Minimum Humidity 60    
Precipitation  
Precipitation 0.06 in - - ()
Sea Level Pressure  
Sea Level Pressure 29.91 in    
Wind  
Wind Speed 8 mph (SSW)    
Max Wind Speed 15 mph    
Max Gust Speed -    
Visibility 3 miles    
Events Fog , Snow    
Averages and records for this station are not official NWS values.
T = Trace of Precipitation, MM = Missing Value Source: NWS Daily Summary

Daily Weather History Graph

Daily Weather History Graph

Search for Another Location

Airport or City:

Trip Planner

Search our weather history database for the weather conditions in past years. The results will help you decide how hot, cold, wet, or windy it might be!

Date:

Astronomy

Dec. 16, 2013 Rise Set
Actual Time 7:54 AM CST 4:30 PM CST
Civil Twilight 7:19 AM CST 5:05 PM CST
Nautical Twilight 6:40 AM CST 5:43 PM CST
Astronomical Twilight 6:04 AM CST 6:20 PM CST
Moon 4:24 PM CST (12/16) 6:59 AM CST (12/16)
Length of Visible Light 9h 46m
Length of Day
8h 36m
Full, 100% of the Moon is Illuminated
Dec 16
Full
Dec 17
Full
Dec 25
Last Quarter
Jan 1
New
Jan 7
First Quarter

Hourly Weather History & Observations

Time (CST) Temp. Windchill Dew Point Humidity Pressure Visibility Wind Dir Wind Speed Gust Speed Precip Events Conditions
12:53 AM -0.9 °F -11.0 °F -11.9 °F 60% 30.13 in 10.0 mi SSE 4.6 mph - N/A   Overcast
1:53 AM -0.9 °F -14.1 °F -11.0 °F 62% 30.12 in 10.0 mi SSE 6.9 mph - N/A   Overcast
2:53 AM -0.0 °F -14.2 °F -11.0 °F 60% 30.09 in 10.0 mi SSE 8.1 mph - N/A   Overcast
3:53 AM 1.0 °F -12.9 °F -9.9 °F 60% 30.09 in 10.0 mi South 8.1 mph - N/A   Overcast
4:53 AM 1.0 °F -8.7 °F -8.0 °F 66% 30.07 in 10.0 mi SSE 4.6 mph - N/A   Overcast
5:53 AM 1.9 °F -9.2 °F -6.0 °F 69% 30.07 in 10.0 mi South 5.8 mph - N/A   Overcast
6:19 AM 1.4 °F -14.5 °F -5.8 °F 72% 29.94 in 10.0 mi South 10.4 mph - N/A   Overcast
6:53 AM 1.9 °F -13.8 °F -5.1 °F 72% 30.04 in 3.0 mi South 10.4 mph - 0.00 in Snow Light Snow
6:58 AM 1.4 °F -12.5 °F -5.8 °F 72% 29.92 in 2.0 mi South 8.1 mph - 0.00 in Snow Light Snow
7:05 AM 1.4 °F -9.9 °F -5.8 °F 72% 29.92 in 2.0 mi SSE 5.8 mph - 0.00 in Snow Light Snow
7:25 AM 1.4 °F -9.9 °F -4.0 °F 78% 29.93 in 1.2 mi SSW 5.8 mph - 0.00 in Snow Light Snow
7:29 AM 1.4 °F -11.3 °F -4.0 °F 78% 29.92 in 0.8 mi South 6.9 mph - 0.00 in Snow Light Snow
7:53 AM 1.9 °F -11.8 °F -4.0 °F 76% 30.03 in 1.0 mi South 8.1 mph - 0.00 in Snow Light Snow
8:11 AM 1.4 °F -14.5 °F -4.0 °F 78% 29.90 in 0.2 mi South 10.4 mph - 0.00 in Snow Heavy Snow
8:30 AM 1.4 °F -14.5 °F -4.0 °F 78% 29.87 in 0.8 mi SSE 10.4 mph - 0.00 in Snow Light Snow
8:33 AM 1.4 °F -16.1 °F -4.0 °F 78% 29.87 in 1.0 mi South 12.7 mph - 0.01 in Snow Light Snow
8:40 AM 1.4 °F -16.9 °F -4.0 °F 78% 29.86 in 0.8 mi SSE 13.8 mph - 0.01 in Snow Light Snow
8:53 AM 1.9 °F -16.9 °F -4.0 °F 76% 29.97 in 0.2 mi South 15.0 mph - 0.01 in Snow Heavy Snow
9:05 AM 1.4 °F -16.1 °F -2.2 °F 85% 29.86 in 0.2 mi South 12.7 mph - 0.00 in Snow Heavy Snow
9:19 AM 3.2 °F -11.3 °F -2.2 °F 78% 29.87 in 0.5 mi South 9.2 mph - 0.00 in Snow Snow
9:30 AM 3.2 °F -12.2 °F -2.2 °F 78% 29.89 in 1.2 mi SSW 10.4 mph - 0.00 in Snow Light Snow
9:41 AM 3.2 °F -9.1 °F -2.2 °F 78% 29.90 in 1.5 mi SSW 6.9 mph - 0.00 in Snow Light Snow
9:53 AM 3.9 °F -10.4 °F -2.0 °F 76% 29.99 in 1.5 mi South 9.2 mph - 0.00 in Snow Light Snow
10:04 AM 3.2 °F -11.3 °F -2.2 °F 78% 29.92 in 1.2 mi SW 9.2 mph - 0.00 in Snow Light Snow
10:11 AM 3.2 °F -11.3 °F -2.2 °F 78% 29.90 in 2.0 mi SSW 9.2 mph - 0.00 in   Haze
10:17 AM 3.2 °F -10.3 °F -2.2 °F 78% 29.91 in 1.2 mi SSW 8.1 mph - 0.00 in Snow Light Snow
10:24 AM 3.2 °F -12.2 °F -0.4 °F 85% 29.90 in 0.8 mi SSW 10.4 mph - 0.01 in Snow Light Snow
10:35 AM 3.2 °F -10.3 °F -0.4 °F 85% 29.89 in 1.0 mi SSW 8.1 mph - 0.01 in Snow Light Snow
10:46 AM 5.0 °F -10.0 °F -0.4 °F 78% 29.89 in 2.0 mi SSW 10.4 mph - 0.01 in Snow Light Snow
10:53 AM 5.0 °F -10.8 °F -0.9 °F 76% 29.99 in 2.5 mi SSW 11.5 mph - 0.01 in Snow Light Snow
11:04 AM 5.0 °F -10.8 °F -0.4 °F 78% 29.89 in 1.2 mi SSW 11.5 mph - 0.00 in Snow Light Snow
11:13 AM 5.0 °F -10.0 °F -0.4 °F 78% 29.90 in 1.5 mi SSW 10.4 mph - 0.00 in Snow Light Snow
11:22 AM 5.0 °F -12.3 °F -0.4 °F 78% 29.89 in 1.2 mi SSW 13.8 mph - 0.00 in Snow Light Snow
11:45 AM 6.8 °F -9.3 °F -0.4 °F 72% 29.87 in 1.5 mi SSW 12.7 mph - 0.00 in Snow Light Snow
11:53 AM 7.0 °F -7.5 °F -0.0 °F 73% 29.96 in 1.5 mi South 10.4 mph - 0.00 in Snow Light Snow
12:01 PM 6.8 °F -8.6 °F 1.4 °F 79% 29.87 in 1.8 mi SSW 11.5 mph - 0.00 in Snow Light Snow
12:12 PM 6.8 °F -7.8 °F 1.4 °F 79% 29.87 in 2.5 mi SSW 10.4 mph - 0.00 in   Haze
12:27 PM 8.6 °F -4.7 °F 1.4 °F 73% 29.86 in 1.8 mi SSW 9.2 mph - 0.00 in Snow Light Snow
12:41 PM 8.6 °F -3.7 °F 3.2 °F 79% 29.86 in 2.0 mi SW 8.1 mph - 0.00 in Snow Light Snow
12:53 PM 9.0 °F -4.2 °F 3.0 °F 77% 29.96 in 2.5 mi SW 9.2 mph - 0.00 in   Haze
1:26 PM 10.4 °F -2.4 °F 3.2 °F 73% 29.86 in 1.8 mi SW 9.2 mph - 0.00 in Snow Light Snow
1:37 PM 10.4 °F -0.4 °F 5.0 °F 79% 29.86 in 2.0 mi SW 6.9 mph - 0.00 in Snow Light Snow
1:40 PM 10.4 °F -1.5 °F 5.0 °F 79% 29.87 in 0.2 mi SW 8.1 mph - 0.00 in Snow Heavy Snow
1:50 PM 10.4 °F -1.5 °F 5.0 °F 79% 29.86 in 1.2 mi SW 8.1 mph - 0.00 in Snow Light Snow
1:53 PM 10.9 °F -0.8 °F 6.1 °F 81% 29.95 in 2.0 mi SSW 8.1 mph - 0.00 in Snow Light Snow
2:15 PM 12.2 °F 2.9 °F 6.8 °F 79% 29.86 in 3.0 mi SW 5.8 mph - 0.00 in   Haze
2:53 PM 14.0 °F 5.1 °F 8.1 °F 77% 29.95 in 4.0 mi SSW 5.8 mph - 0.00 in   Haze
3:20 PM 14.0 °F 2.0 °F 8.6 °F 79% 29.86 in 5.0 mi SW 9.2 mph - N/A   Haze
3:53 PM 12.9 °F 0.7 °F 8.1 °F 81% 29.96 in 0.5 mi SW 9.2 mph - 0.00 in Snow Snow
4:02 PM 12.2 °F 1.7 °F 6.8 °F 79% 29.87 in 2.5 mi SW 6.9 mph - 0.00 in   Haze
4:09 PM 12.2 °F 1.7 °F 6.8 °F 79% 29.86 in 5.0 mi SW 6.9 mph - 0.00 in   Haze
4:53 PM 10.9 °F 1.4 °F 7.0 °F 84% 29.95 in 6.0 mi South 5.8 mph - 0.00 in   Clear
5:53 PM 8.1 °F -3.2 °F 5.0 °F 87% 29.94 in 6.0 mi SW 6.9 mph - N/A   Clear
6:53 PM 10.9 °F 1.4 °F 7.0 °F 84% 29.92 in 6.0 mi South 5.8 mph - N/A   Clear
7:53 PM 7.0 °F -3.3 °F 3.9 °F 87% 29.91 in 6.0 mi SSW 5.8 mph - N/A   Clear
8:53 PM 14.0 °F 3.9 °F 10.0 °F 84% 29.89 in 7.0 mi SW 6.9 mph - N/A   Mostly Cloudy
9:53 PM 18.0 °F 7.7 °F 12.9 °F 81% 29.88 in 8.0 mi WSW 8.1 mph - N/A   Overcast
10:33 PM 23.0 °F 13.1 °F 19.4 °F 86% 29.78 in 2.5 mi WSW 9.2 mph - 0.00 in Snow Light Snow
10:41 PM 24.8 °F 15.3 °F 19.4 °F 80% 29.78 in 4.0 mi WSW 9.2 mph - 0.00 in Snow Light Snow
10:47 PM 24.8 °F 15.3 °F 19.4 °F 80% 29.78 in 1.8 mi West 9.2 mph - 0.00 in Snow Light Snow
10:53 PM 25.0 °F 16.3 °F 21.0 °F 85% 29.86 in 1.0 mi WSW 8.1 mph - 0.00 in Snow Light Snow
11:00 PM 24.8 °F 15.3 °F 21.2 °F 86% 29.78 in 0.8 mi WSW 9.2 mph - 0.00 in Snow Light Snow
11:10 PM 24.8 °F 15.3 °F 21.2 °F 86% 29.78 in 0.5 mi WSW 9.2 mph - 0.01 in Fog , Snow Snow
11:53 PM 28.0 °F 20.0 °F 25.0 °F 88% 29.84 in 1.2 mi West 8.1 mph - 0.04 in Snow Light Snow